EW6950 Weather Reports


Display with metric or nautical units.
time (UTC)temp
F
wind
direction
speed
MPH
gust
MPH
rain 1hr
in
rain 24hr
in
rain mn
in
humidity
%
barometer
mb
20260507113005 58 178 2.0 4.0 0.00 0.00 0.00 72 1014.5
20260507112456 58 186 1.0 4.0 0.00 0.00 0.00 72 1014.5
20260507111957 57 179 1.0 3.0 0.00 0.00 0.00 75 1014.4
20260507111454 56 182 2.0 3.0 0.00 0.00 0.00 77 1014.5
20260507110954 55 175 1.0 3.0 0.00 0.00 0.00 78 1014.5
20260507110509 54 311 1.0 3.0 0.00 0.00 0.00 76 1014.6
20260507105452 54 315 1.0 3.0 0.00 0.00 0.00 77 1014.7
20260507104937 54 313 1.0 3.0 0.00 0.00 0.00 77 1014.7
20260507104438 53 292 1.0 3.0 0.00 0.00 0.00 78 1014.7
20260507103934 54 293 1.0 4.0 0.00 0.00 0.00 78 1014.7
20260507103434 53 287 1.0 4.0 0.00 0.00 0.00 79 1014.7
20260507102434 53 324 0.0 3.0 0.00 0.00 0.00 80 1014.6
20260507101434 53 315 1.0 3.0 0.00 0.00 0.00 80 1014.6
20260507100931 53 319 1.0 3.0 0.00 0.00 0.00 80 1014.6
20260507095931 53 351 1.0 3.0 0.00 0.00 0.00 80 1014.4
20260507095427 52 330 1.0 3.0 0.00 0.00 0.00 80 1014.4
20260507094420 52 323 1.0 4.0 0.00 0.00 0.00 80 1014.4
20260507093920 52 315 2.0 5.0 0.00 0.00 0.00 80 1014.4
20260507093419 52 313 2.0 5.0 0.00 0.00 0.00 80 1014.3
20260507092920 52 246 2.0 5.0 0.00 0.00 0.00 81 1014.4
20260507092420 52 323 2.0 5.0 0.00 0.00 0.00 82 1014.3
20260507091419 52 30 2.0 4.0 0.00 0.00 0.00 82 1014.3
20260507090419 52 340 2.0 5.0 0.00 0.00 0.00 83 1014.1
20260507085919 52 309 2.0 4.0 0.00 0.00 0.00 83 1014.1
20260507084919 51 313 1.0 4.0 0.00 0.00 0.00 83 1014.1
20260507084420 51 311 2.0 6.0 0.00 0.00 0.00 84 1014.0
20260507083912 51 320 2.0 6.0 0.00 0.00 0.00 84 1014.0
20260507083411 51 327 2.0 5.0 0.00 0.00 0.00 84 1014.0
20260507082911 51 5 2.0 4.0 0.00 0.00 0.00 85 1013.9
20260507082411 50 5 2.0 4.0 0.00 0.00 0.00 86 1014.0
20260507081912 50 328 2.0 5.0 0.00 0.00 0.00 86 1013.9
20260507080907 49 323 1.0 4.0 0.00 0.00 0.00 86 1013.8
20260507080407 49 306 2.0 5.0 0.00 0.00 0.00 86 1013.8
20260507075908 49 301 2.0 5.0 0.00 0.00 0.00 87 1013.8
20260507075408 49 334 2.0 5.0 0.00 0.00 0.00 87 1013.8
20260507074907 49 319 2.0 7.0 0.00 0.00 0.00 87 1013.8
20260507074407 49 300 2.0 7.0 0.00 0.00 0.00 87 1013.7
20260507073907 49 317 2.0 6.0 0.00 0.00 0.00 87 1013.7
20260507073408 49 311 3.0 6.0 0.00 0.00 0.00 87 1013.6
20260507072905 49 321 2.0 6.0 0.00 0.00 0.00 88 1013.5
20260507072405 49 309 2.0 10.0 0.00 0.00 0.00 88 1013.5
20260507071905 49 282 2.0 10.0 0.00 0.01 0.00 88 1013.5
20260507071405 49 304 2.0 6.0 0.00 0.01 0.00 89 1013.5
20260507070405 49 328 2.0 7.0 0.00 0.01 0.00 89 1013.4
20260507065406 49 327 3.0 8.0 0.00 0.02 0.00 89 1013.3
20260507064902 49 309 2.0 8.0 0.00 0.02 0.00 89 1013.3
20260507064403 48 321 2.0 6.0 0.00 0.02 0.00 89 1013.1
20260507063903 48 261 2.0 6.0 0.00 0.02 0.00 90 1013.1
20260507063402 48 337 2.0 5.0 0.00 0.02 0.00 90 1013.0
20260507062902 48 280 2.0 5.0 0.00 0.02 0.00 90 1013.0
20260507062402 48 311 2.0 5.0 0.00 0.02 0.00 90 1013.0
20260507061858 48 306 2.0 4.0 0.00 0.02 0.00 91 1013.0
20260507061356 48 324 2.0 4.0 0.00 0.03 0.00 91 1012.9
20260507060847 48 284 1.0 4.0 0.00 0.03 0.00 91 1012.9
20260507060343 48 324 1.0 4.0 0.00 0.03 0.00 91 1012.9
20260507055843 47 311 2.0 4.0 0.00 0.03 0.00 92 1012.8
20260507055344 47 307 1.0 4.0 0.00 0.03 0.00 92 1012.8
20260507054839 47 315 1.0 4.0 0.00 0.04 0.00 92 1012.7
20260507054337 47 321 1.0 3.0 0.00 0.04 0.00 92 1012.7
20260507052835 47 330 1.0 2.0 0.00 0.06 0.00 92 1012.5
20260507052336 46 251 1.0 4.0 0.00 0.06 0.00 92 1012.5
20260507051831 46 246 1.0 4.0 0.00 0.06 0.00 92 1012.5
20260507051334 46 313 1.0 2.0 0.00 0.06 0.00 92 1012.4
20260507050831 46 314 1.0 2.0 0.00 0.07 0.00 92 1012.3
20260507050333 46 313 1.0 2.0 0.00 0.07 0.00 92 1012.3
20260507045830 46 287 1.0 2.0 0.00 0.07 0.00 92 1012.2
20260507045329 46 287 1.0 2.0 0.00 0.07 0.00 92 1012.2
20260507044829 46 305 1.0 3.0 0.00 0.07 0.00 92 1012.1
20260507044323 46 308 1.0 4.0 0.00 0.07 0.00 92 1011.9
20260507043817 46 313 1.0 2.0 0.00 0.07 0.00 92 1011.9
20260507043317 46 313 0.0 2.0 0.00 0.07 0.00 92 1011.8
20260507042815 46 313 0.0 2.0 0.00 0.07 0.00 92 1011.8
20260507042315 46 313 0.0 2.0 0.00 0.07 0.00 92 1011.7
20260507041809 46 313 0.0 2.0 0.00 0.07 0.00 92 1011.7
20260507041309 46 313 0.0 2.0 0.00 0.07 0.00 92 1011.6
20260507040809 46 313 1.0 3.0 0.00 0.07 0.00 92 1011.6
20260507040309 46 312 1.0 3.0 0.00 0.07 0.00 92 1011.6
20260507035809 46 311 0.0 2.0 0.00 0.07 0.00 92 1011.5
20260507035319 46 311 0.0 1.0 0.00 0.07 0.00 92 1011.5
20260507034807 46 311 0.0 2.0 0.00 0.07 0.00 92 1011.5
20260507034305 46 311 1.0 3.0 0.00 0.07 0.00 92 1011.5
20260507033305 46 315 1.0 2.0 0.00 0.07 0.00 92 1011.4
20260507032306 46 313 1.0 4.0 0.00 0.07 0.00 92 1011.4
20260507031801 46 288 1.0 3.0 0.00 0.07 0.00 92 1011.3
20260507031301 46 279 1.0 2.0 0.00 0.07 0.00 92 1011.3
20260507030801 46 264 1.0 2.0 0.00 0.07 0.00 92 1011.3
20260507030301 46 264 0.0 1.0 0.00 0.07 0.00 92 1011.3
20260507025801 46 264 0.0 0.0 0.00 0.07 0.00 92 1011.3
20260507025259 46 264 0.0 1.0 0.00 0.07 0.00 92 1011.3
20260507024257 46 264 0.0 1.0 0.00 0.07 0.00 92 1011.3
20260507023757 46 264 0.0 1.0 0.00 0.07 0.00 92 1011.3
20260507022755 46 264 0.0 1.0 0.00 0.07 0.00 91 1011.3
20260507022255 46 264 0.0 1.0 0.00 0.07 0.00 91 1011.3
20260507021755 46 264 0.0 1.0 0.00 0.07 0.00 91 1011.2
20260507021253 46 264 1.0 3.0 0.00 0.07 0.00 91 1011.2
20260507020753 46 264 1.0 3.0 0.00 0.07 0.00 91 1011.2
20260507020253 46 241 1.0 3.0 0.00 0.07 0.00 91 1011.1
20260507015753 46 241 1.0 4.0 0.00 0.07 0.00 91 1011.1
20260507015246 46 240 1.0 4.0 0.00 0.07 0.00 91 1011.0
20260507014740 46 242 1.0 3.0 0.00 0.07 0.00 91 1011.1
20260507014236 46 257 1.0 5.0 0.00 0.07 0.00 91 1011.1
20260507013733 46 250 1.0 5.0 0.00 0.07 0.00 91 1011.0
20260507013232 46 248 1.0 4.0 0.00 0.07 0.00 91 1011.1
20260507012733 46 250 1.0 3.0 0.00 0.07 0.00 91 1011.0
20260507012233 46 249 1.0 5.0 0.00 0.07 0.00 90 1011.0
20260507011733 46 247 1.0 5.0 0.00 0.07 0.00 90 1011.0
20260507011233 46 247 1.0 5.0 0.00 0.07 0.00 90 1010.9
20260507010733 46 311 2.0 4.0 0.00 0.07 0.00 90 1011.0
20260507010233 46 317 2.0 6.0 0.00 0.07 0.00 90 1011.0
20260507005732 46 300 1.0 6.0 0.00 0.07 0.00 90 1010.9
20260507004733 46 306 2.0 4.0 0.00 0.07 0.00 89 1010.8
20260507004231 46 314 1.0 4.0 0.00 0.07 0.00 89 1010.8
20260507003732 46 325 1.0 4.0 0.00 0.07 0.00 89 1010.7
20260507002732 46 273 1.0 4.0 0.00 0.07 0.00 89 1010.7
20260507002231 46 298 1.0 3.0 0.00 0.07 0.00 89 1010.7
20260507001731 46 296 1.0 3.0 0.00 0.07 0.00 89 1010.7
20260507001230 46 281 1.0 2.0 0.00 0.07 0.00 89 1010.6
20260507000732 46 282 1.0 2.0 0.00 0.07 0.00 89 1010.6
20260507000231 46 265 0.0 2.0 0.00 0.07 0.00 89 1010.5
20260506235732 46 265 1.0 3.0 0.00 0.07 0.00 89 1010.6
20260506235231 46 265 1.0 4.0 0.00 0.07 0.00 89 1010.6
20260506234732 46 263 1.0 4.0 0.00 0.07 0.00 89 1010.5
20260506234231 46 313 2.0 4.0 0.00 0.07 0.00 89 1010.5
20260506233732 46 320 2.0 4.0 0.00 0.07 0.00 89 1010.5
20260506232732 46 319 2.0 4.0 0.00 0.07 0.00 89 1010.5
20260506232231 46 309 2.0 4.0 0.00 0.07 0.00 89 1010.5
20260506231732 46 313 2.0 9.0 0.00 0.07 0.00 89 1010.4
20260506231231 46 271 3.0 9.0 0.00 0.07 0.00 89 1010.4
20260506230732 46 355 2.0 8.0 0.00 0.07 0.00 89 1010.5
20260506224732 47 309 2.0 7.0 0.00 0.07 0.00 89 1010.4
20260506224233 47 325 2.0 7.0 0.00 0.07 0.00 89 1010.4
20260506223732 47 306 2.0 5.0 0.00 0.07 0.00 89 1010.4
20260506223233 47 313 2.0 5.0 0.00 0.07 0.00 89 1010.4
20260506222732 47 311 2.0 4.0 0.00 0.07 0.00 89 1010.3
20260506222233 47 304 2.0 4.0 0.00 0.07 0.00 89 1010.3
20260506221731 47 315 2.0 4.0 0.00 0.07 0.00 89 1010.2
20260506221234 47 308 2.0 4.0 0.00 0.07 0.00 89 1010.2
20260506220731 47 313 1.0 3.0 0.00 0.07 0.00 89 1010.1
20260506220232 47 307 1.0 3.0 0.00 0.07 0.00 89 1010.0
20260506215731 48 300 1.0 2.0 0.00 0.07 0.07 89 1010.0
20260506215232 48 286 1.0 2.0 0.00 0.07 0.07 89 1010.0
20260506214231 48 281 1.0 2.0 0.00 0.07 0.07 88 1009.9
20260506213731 48 321 1.0 3.0 0.00 0.07 0.07 88 1009.8
20260506213232 48 326 2.0 7.0 0.00 0.07 0.07 88 1009.8
20260506212731 48 309 2.0 7.0 0.00 0.07 0.07 88 1009.7
20260506212231 48 320 2.0 4.0 0.00 0.07 0.07 89 1009.6
20260506211732 48 320 1.0 3.0 0.00 0.07 0.07 89 1009.7
20260506211232 48 301 1.0 2.0 0.00 0.07 0.07 89 1009.6
20260506210731 48 317 1.0 2.0 0.00 0.07 0.07 89 1009.6
20260506210232 48 316 0.0 2.0 0.00 0.07 0.07 89 1009.6
20260506205231 48 316 1.0 2.0 0.00 0.07 0.07 88 1009.5
20260506204231 48 315 0.0 2.0 0.00 0.10 0.07 88 1009.6
20260506203731 48 315 1.0 2.0 0.00 0.10 0.07 88 1009.5
20260506203231 48 315 1.0 2.0 0.00 0.10 0.07 88 1009.4
20260506202731 48 317 2.0 5.0 0.00 0.10 0.07 88 1009.4
20260506202231 48 311 2.0 5.0 0.00 0.10 0.07 87 1009.3
20260506201731 49 266 2.0 4.0 0.00 0.12 0.07 87 1009.4
20260506201231 49 315 2.0 4.0 0.00 0.13 0.07 87 1009.3
20260506200731 49 319 2.0 5.0 0.00 0.14 0.07 87 1009.3
20260506200231 49 261 2.0 5.0 0.00 0.16 0.07 87 1009.2
20260506195730 49 309 2.0 4.0 0.00 0.17 0.07 87 1009.2
20260506194732 49 325 1.0 3.0 0.00 0.21 0.07 87 1009.1
20260506194232 49 331 2.0 4.0 0.00 0.22 0.07 87 1008.9
20260506193731 49 318 2.0 4.0 0.00 0.23 0.07 87 1008.9
20260506193232 49 327 3.0 8.0 0.00 0.24 0.07 87 1008.8
20260506192731 49 324 3.0 8.0 0.00 0.24 0.07 87 1008.6
20260506192233 49 312 3.0 7.0 0.00 0.24 0.07 86 1008.6
20260506191731 49 306 2.0 5.0 0.00 0.24 0.07 87 1008.5
20260506191231 49 319 2.0 7.0 0.00 0.24 0.07 87 1008.5
20260506190734 49 340 2.0 7.0 0.00 0.24 0.07 87 1008.4
20260506190231 49 311 2.0 4.0 0.00 0.25 0.07 87 1008.4
20260506185733 49 315 2.0 5.0 0.00 0.25 0.07 86 1008.3
20260506185231 50 315 2.0 5.0 0.00 0.26 0.07 86 1008.3
20260506184733 50 317 2.0 5.0 0.00 0.26 0.07 86 1008.2
20260506184230 50 315 3.0 5.0 0.00 0.26 0.07 86 1008.2
20260506183733 50 311 2.0 6.0 0.00 0.26 0.07 86 1008.1
20260506183231 50 324 3.0 10.0 0.00 0.27 0.07 86 1008.1
20260506182733 50 319 2.0 10.0 0.00 0.27 0.07 86 1008.1
20260506182231 50 289 2.0 6.0 0.00 0.27 0.07 86 1008.0
20260506181733 51 38 2.0 5.0 0.00 0.28 0.07 86 1007.9
20260506181231 51 288 1.0 4.0 0.00 0.28 0.07 86 1007.8
20260506180733 51 315 2.0 7.0 0.00 0.28 0.07 86 1007.8
20260506175733 51 309 3.0 7.0 0.00 0.28 0.07 86 1007.7
20260506173231 51 247 4.0 12.0 0.00 0.29 0.07 87 1007.6
20260506172733 51 328 4.0 12.0 0.00 0.29 0.07 86 1007.5
20260506172231 51 331 3.0 10.0 0.00 0.29 0.07 87 1007.5
20260506171231 52 323 3.0 8.0 0.00 0.29 0.07 87 1007.4
20260506170733 52 336 3.0 8.0 0.00 0.29 0.07 87 1007.4
20260506170231 52 319 3.0 8.0 0.00 0.29 0.07 87 1007.4
20260506165733 52 350 2.0 8.0 0.00 0.29 0.07 87 1007.4
20260506165231 51 338 3.0 8.0 0.00 0.29 0.07 87 1007.4
20260506164734 51 315 3.0 9.0 0.00 0.29 0.07 87 1007.4
20260506163733 51 309 3.0 7.0 0.00 0.29 0.07 87 1007.4
20260506163231 52 284 3.0 10.0 0.00 0.29 0.07 86 1007.4
20260506162734 52 328 3.0 10.0 0.00 0.29 0.07 86 1007.4
20260506162231 52 318 3.0 8.0 0.00 0.29 0.07 86 1007.3
20260506161231 52 300 3.0 9.0 0.00 0.29 0.07 85 1007.3
20260506160731 52 302 3.0 9.0 0.00 0.30 0.07 85 1007.3
20260506155731 53 316 2.0 6.0 0.00 0.30 0.07 85 1007.2
20260506154732 53 292 3.0 10.0 0.00 0.30 0.07 85 1007.2
20260506154229 53 319 3.0 9.0 0.00 0.31 0.07 86 1007.2
20260506153729 53 322 4.0 10.0 0.00 0.31 0.07 85 1007.1
20260506152712 54 5 3.0 7.0 0.00 0.31 0.07 84 1007.0
20260506152209 54 338 2.0 7.0 0.00 0.31 0.07 85 1006.9
20260506151712 54 276 3.0 8.0 0.00 0.31 0.07 86 1006.9
20260506151209 53 323 4.0 11.0 0.00 0.32 0.07 86 1006.9
20260506150209 54 347 4.0 10.0 0.00 0.32 0.07 84 1006.9
20260506145709 55 319 4.0 10.0 0.00 0.32 0.07 85 1006.7
20260506145208 55 340 4.0 10.0 0.00 0.33 0.07 87 1006.7
20260506144708 55 306 4.0 12.0 0.00 0.33 0.07 88 1006.6
20260506144206 54 309 3.0 12.0 0.00 0.33 0.07 89 1006.6
20260506143206 53 328 3.0 9.0 0.00 0.33 0.07 90 1006.7
20260506142706 52 248 3.0 9.0 0.00 0.34 0.07 90 1006.7
20260506141706 52 316 2.0 5.0 0.00 0.34 0.07 91 1006.9
20260506141206 51 337 3.0 5.0 0.00 0.34 0.07 91 1006.8
20260506140706 51 313 3.0 5.0 0.00 0.34 0.07 91 1006.9
20260506140206 51 355 2.0 5.0 0.00 0.34 0.07 91 1006.9
20260506135704 51 307 2.0 5.0 0.00 0.34 0.07 91 1006.9
20260506134704 52 291 3.0 8.0 0.00 0.35 0.07 91 1006.9
20260506134204 52 328 2.0 7.0 0.00 0.35 0.07 91 1006.9
20260506133707 52 252 2.0 5.0 0.00 0.35 0.07 91 1006.9
20260506133205 52 320 2.0 5.0 0.00 0.35 0.07 91 1006.9
20260506132707 52 323 2.0 4.0 0.00 0.35 0.07 91 1006.9
20260506132202 52 327 2.0 6.0 0.00 0.35 0.07 91 1006.9
20260506131202 51 309 3.0 8.0 0.00 0.36 0.07 91 1006.8
20260506130704 52 256 3.0 8.0 0.00 0.37 0.07 91 1006.7
20260506130201 52 304 3.0 7.0 0.00 0.38 0.07 91 1006.7
20260506125703 52 328 3.0 9.0 0.00 0.39 0.07 91 1006.7
20260506125202 52 318 2.0 9.0 0.00 0.39 0.07 91 1006.6
20260506124704 52 314 2.0 6.0 0.00 0.39 0.07 91 1006.6
20260506124202 52 355 3.0 7.0 0.00 0.39 0.07 91 1006.5
20260506123702 52 309 3.0 7.0 0.00 0.40 0.07 91 1006.5
20260506123201 52 318 3.0 8.0 0.00 0.40 0.07 91 1006.4
20260506122702 52 321 4.0 9.0 0.00 0.40 0.07 90 1006.4
20260506122203 52 340 3.0 9.0 0.00 0.41 0.07 90 1006.3
20260506121201 53 273 2.0 7.0 0.00 0.43 0.07 90 1006.3
20260506120702 52 329 3.0 7.0 0.00 0.44 0.07 90 1006.2
20260506120202 52 351 3.0 7.0 0.00 0.44 0.07 90 1006.2
20260506115702 53 315 3.0 8.0 0.00 0.44 0.07 90 1006.2
20260506115202 53 311 2.0 8.0 0.00 0.44 0.07 90 1006.1
20260506114702 53 286 2.0 5.0 0.00 0.44 0.07 90 1006.1
20260506113702 53 323 2.0 7.0 0.00 0.44 0.07 90 1006.0
20260506113202 53 296 3.0 8.0 0.00 0.44 0.07 90 1006.0